Time,TemperatureF,DewpointF,PressureIn,WindDirection,WindDirectionDegrees,WindSpeedMPH,WindSpeedGustMPH,Humidity,HourlyPrecipIn,Conditions,Clouds,dailyrainin,SoftwareType,DateUTC
2013-03-03 00:03:00,52.1,40.0,30.05,NW,311,2.0,7.0,64,0.00,,,0.00,weatherlink.com 1.10,2013-03-03 05:03:00,
2013-03-03 00:19:00,51.8,39.0,30.05,NW,304,0.0,7.0,63,0.00,,,0.00,weatherlink.com 1.10,2013-03-03 05:19:00,
2013-03-03 00:34:00,51.6,40.0,30.04,NW,308,0.0,6.0,64,0.00,,,0.00,weatherlink.com 1.10,2013-03-03 05:34:00,
2013-03-03 00:49:00,50.1,41.0,30.05,North,349,3.0,10.0,70,0.00,,,0.00,weatherlink.com 1.10,2013-03-03 05:49:00,
2013-03-03 01:04:00,47.9,39.0,30.06,NNW,334,4.0,10.0,70,0.00,,,0.00,weatherlink.com 1.10,2013-03-03 06:04:00,
2013-03-03 01:19:00,46.6,36.0,30.06,NW,321,4.0,9.0,68,0.00,,,0.00,weatherlink.com 1.10,2013-03-03 06:19:00,
2013-03-03 01:34:00,45.6,35.0,30.06,NNE,21,3.0,9.0,67,0.00,,,0.00,weatherlink.com 1.10,2013-03-03 06:34:00,
2013-03-03 01:49:00,44.9,34.0,30.07,NNW,338,3.0,9.0,66,0.00,,,0.00,weatherlink.com 1.10,2013-03-03 06:49:00,
2013-03-03 02:04:00,44.4,34.0,30.06,NNW,332,5.0,6.0,66,0.00,,,0.00,weatherlink.com 1.10,2013-03-03 07:04:00,
2013-03-03 02:19:00,44.1,34.0,30.06,NNE,24,3.0,10.0,67,0.00,,,0.00,weatherlink.com 1.10,2013-03-03 07:19:00,
2013-03-03 02:34:00,43.5,33.0,30.07,North,10,7.0,9.0,66,0.00,,,0.00,weatherlink.com 1.10,2013-03-03 07:34:00,
2013-03-03 02:49:00,43.7,33.0,30.06,NW,312,6.0,8.0,66,0.00,,,0.00,weatherlink.com 1.10,2013-03-03 07:49:00,
2013-03-03 03:05:00,43.4,32.0,30.06,NNW,347,3.0,8.0,64,0.00,,,0.00,weatherlink.com 1.10,2013-03-03 08:05:00,
2013-03-03 03:20:00,43.6,32.0,30.06,NNE,24,5.0,8.0,64,0.00,,,0.00,weatherlink.com 1.10,2013-03-03 08:20:00,
2013-03-03 03:35:00,43.7,33.0,30.07,NNE,27,4.0,7.0,65,0.00,,,0.00,weatherlink.com 1.10,2013-03-03 08:35:00,
2013-03-03 03:50:00,43.9,32.0,30.07,North,3,2.0,7.0,64,0.00,,,0.00,weatherlink.com 1.10,2013-03-03 08:50:00,
2013-03-03 04:05:00,43.7,32.0,30.07,North,354,1.0,6.0,63,0.00,,,0.00,weatherlink.com 1.10,2013-03-03 09:05:00,
2013-03-03 04:20:00,43.6,32.0,30.07,North,356,2.0,6.0,63,0.00,,,0.00,weatherlink.com 1.10,2013-03-03 09:20:00,
2013-03-03 04:35:00,43.6,32.0,30.07,NNW,345,2.0,7.0,63,0.00,,,0.00,weatherlink.com 1.10,2013-03-03 09:35:00,
2013-03-03 04:50:00,43.5,31.0,30.07,NE,44,2.0,7.0,62,0.00,,,0.00,weatherlink.com 1.10,2013-03-03 09:50:00,
2013-03-03 05:05:00,43.2,31.0,30.06,North,8,4.0,8.0,62,0.00,,,0.00,weatherlink.com 1.10,2013-03-03 10:05:00,
2013-03-03 05:20:00,42.9,31.0,30.07,North,4,2.0,8.0,63,0.00,,,0.00,weatherlink.com 1.10,2013-03-03 10:20:00,
2013-03-03 05:35:00,43.0,31.0,30.07,NNE,23,4.0,8.0,63,0.00,,,0.00,weatherlink.com 1.10,2013-03-03 10:35:00,
2013-03-03 05:50:00,43.1,31.0,30.08,NE,51,3.0,9.0,63,0.00,,,0.00,weatherlink.com 1.10,2013-03-03 10:50:00,
2013-03-03 06:04:00,43.2,32.0,30.08,NE,37,6.0,7.0,65,0.00,,,0.00,weatherlink.com 1.10,2013-03-03 11:04:00,
2013-03-03 06:20:00,43.3,33.0,30.09,ENE,69,4.0,8.0,66,0.00,,,0.00,weatherlink.com 1.10,2013-03-03 11:20:00,
2013-03-03 06:35:00,43.4,33.0,30.09,NNE,25,2.0,6.0,67,0.00,,,0.00,weatherlink.com 1.10,2013-03-03 11:35:00,
2013-03-03 06:50:00,43.5,34.0,30.09,NE,37,2.0,5.0,68,0.00,,,0.00,weatherlink.com 1.10,2013-03-03 11:50:00,
2013-03-03 07:05:00,43.3,33.0,30.09,NNW,341,2.0,8.0,68,0.00,,,0.00,weatherlink.com 1.10,2013-03-03 12:05:00,
2013-03-03 07:20:00,43.2,34.0,30.09,NE,41,3.0,6.0,69,0.00,,,0.00,weatherlink.com 1.10,2013-03-03 12:20:00,
2013-03-03 07:35:00,43.2,34.0,30.09,ENE,63,4.0,7.0,69,0.00,,,0.00,weatherlink.com 1.10,2013-03-03 12:35:00,
2013-03-03 07:49:00,42.9,34.0,30.10,NNW,343,2.0,10.0,72,0.00,,,0.00,weatherlink.com 1.10,2013-03-03 12:49:00,
2013-03-03 08:04:00,42.5,35.0,30.10,NE,41,1.0,6.0,74,0.00,,,0.00,weatherlink.com 1.10,2013-03-03 13:04:00,
2013-03-03 08:19:00,42.6,35.0,30.11,North,1,1.0,5.0,75,0.00,,,0.00,weatherlink.com 1.10,2013-03-03 13:19:00,
2013-03-03 08:34:00,42.8,35.0,30.12,NNE,21,2.0,6.0,74,0.00,,,0.00,weatherlink.com 1.10,2013-03-03 13:34:00,
2013-03-03 08:52:00,43.0,35.0,30.13,NNE,17,2.0,7.0,74,0.00,,,0.00,weatherlink.com 1.10,2013-03-03 13:52:00,
2013-03-03 09:08:00,43.0,35.0,30.13,NNE,20,3.0,-999.0,73,-99.99,,,0.00,weatherlink.com 1.10,2013-03-03 14:08:00,
2013-03-03 09:28:00,44.3,35.0,30.13,NW,318,2.0,8.0,70,0.00,,,0.00,weatherlink.com 1.10,2013-03-03 14:28:00,
2013-03-03 09:46:00,44.7,35.0,30.14,East,97,1.0,10.0,70,0.00,,,0.00,weatherlink.com 1.10,2013-03-03 14:46:00,
2013-03-03 10:04:00,45.1,35.0,30.14,NE,48,6.0,8.0,68,0.00,,,0.00,weatherlink.com 1.10,2013-03-03 15:04:00,
2013-03-03 10:24:00,45.5,35.0,30.14,North,356,1.0,6.0,66,0.00,,,0.00,weatherlink.com 1.10,2013-03-03 15:24:00,
2013-03-03 10:42:00,46.3,35.0,30.14,NNE,30,4.0,5.0,65,0.00,,,0.00,weatherlink.com 1.10,2013-03-03 15:42:00,
2013-03-03 11:00:00,46.4,36.0,30.14,North,1,1.0,4.0,66,0.00,,,0.00,weatherlink.com 1.10,2013-03-03 16:00:00,
2013-03-03 11:20:00,47.0,36.0,30.14,NNW,334,0.0,4.0,67,0.00,,,0.00,weatherlink.com 1.10,2013-03-03 16:20:00,
2013-03-03 11:38:00,48.1,37.0,30.13,NNE,12,2.0,4.0,65,0.00,,,0.00,weatherlink.com 1.10,2013-03-03 16:38:00,
2013-03-03 11:56:00,49.6,38.0,30.12,WNW,291,0.0,4.0,64,0.00,,,0.00,weatherlink.com 1.10,2013-03-03 16:56:00,
2013-03-03 12:14:00,51.6,39.0,30.12,NW,309,0.0,5.0,63,0.00,,,0.00,weatherlink.com 1.10,2013-03-03 17:14:00,
2013-03-03 12:33:00,53.4,40.0,30.11,NW,312,4.0,8.0,61,0.00,,,0.00,weatherlink.com 1.10,2013-03-03 17:33:00,
2013-03-03 12:53:00,54.7,40.0,30.10,NW,317,3.0,8.0,58,0.00,,,0.00,weatherlink.com 1.10,2013-03-03 17:53:00,
2013-03-03 13:11:00,53.5,40.0,30.10,WNW,302,4.0,7.0,60,0.00,,,0.00,weatherlink.com 1.10,2013-03-03 18:11:00,
2013-03-03 13:29:00,52.7,40.0,30.10,WNW,286,5.0,8.0,62,0.00,,,0.00,weatherlink.com 1.10,2013-03-03 18:29:00,
2013-03-03 13:47:00,52.5,40.0,30.09,NW,307,2.0,7.0,62,0.00,,,0.00,weatherlink.com 1.10,2013-03-03 18:47:00,
2013-03-03 14:07:00,52.7,39.0,30.09,WNW,297,1.0,6.0,61,0.00,,,0.00,weatherlink.com 1.10,2013-03-03 19:07:00,
2013-03-03 14:25:00,52.1,40.0,30.09,NW,311,0.0,8.0,63,0.00,,,0.00,weatherlink.com 1.10,2013-03-03 19:25:00,
2013-03-03 14:43:00,52.6,39.0,30.10,NW,318,3.0,6.0,60,0.00,,,0.00,weatherlink.com 1.10,2013-03-03 19:43:00,
2013-03-03 15:03:00,52.6,40.0,30.09,WNW,300,3.0,7.0,62,0.00,,,0.00,weatherlink.com 1.10,2013-03-03 20:03:00,
2013-03-03 15:20:00,52.1,39.0,30.09,NNW,335,1.0,5.0,62,0.00,,,0.00,weatherlink.com 1.10,2013-03-03 20:20:00,
2013-03-03 15:38:00,53.2,40.0,30.09,NW,304,3.0,7.0,61,0.00,,,0.00,weatherlink.com 1.10,2013-03-03 20:38:00,
2013-03-03 15:58:00,53.1,41.0,30.09,NW,313,1.0,8.0,63,0.00,,,0.00,weatherlink.com 1.10,2013-03-03 20:58:00,
2013-03-03 16:16:00,52.5,40.0,30.09,NW,318,2.0,10.0,62,0.00,,,0.00,weatherlink.com 1.10,2013-03-03 21:16:00,
2013-03-03 16:34:00,52.3,40.0,30.09,WNW,297,2.0,7.0,63,0.00,,,0.00,weatherlink.com 1.10,2013-03-03 21:34:00,
2013-03-03 16:54:00,51.9,39.0,30.10,WNW,289,1.0,12.0,62,0.00,,,0.00,weatherlink.com 1.10,2013-03-03 21:54:00,
2013-03-03 17:12:00,52.0,40.0,30.11,WNW,297,3.0,9.0,63,0.00,,,0.00,weatherlink.com 1.10,2013-03-03 22:12:00,
2013-03-03 17:30:00,51.5,40.0,30.11,NW,305,1.0,6.0,64,0.00,,,0.00,weatherlink.com 1.10,2013-03-03 22:30:00,
2013-03-03 17:48:00,50.6,40.0,30.11,WNW,300,0.0,6.0,66,0.00,,,0.00,weatherlink.com 1.10,2013-03-03 22:48:00,
2013-03-03 18:08:00,50.1,39.0,30.12,NW,315,2.0,5.0,67,0.00,,,0.00,weatherlink.com 1.10,2013-03-03 23:08:00,
2013-03-03 18:26:00,50.0,39.0,30.12,NW,307,2.0,5.0,67,0.00,,,0.00,weatherlink.com 1.10,2013-03-03 23:26:00,
2013-03-03 18:44:00,49.9,40.0,30.13,WNW,288,2.0,9.0,68,0.00,,,0.00,weatherlink.com 1.10,2013-03-03 23:44:00,
2013-03-03 19:04:00,49.8,40.0,30.14,NW,307,5.0,7.0,69,0.00,,,0.00,weatherlink.com 1.10,2013-03-04 00:04:00,
2013-03-03 19:22:00,50.0,40.0,30.15,West,280,3.0,4.0,69,0.00,,,0.00,weatherlink.com 1.10,2013-03-04 00:22:00,
2013-03-03 19:40:00,49.9,40.0,30.15,WNW,302,1.0,5.0,69,0.00,,,0.00,weatherlink.com 1.10,2013-03-04 00:40:00,
2013-03-03 19:58:00,49.7,40.0,30.16,WNW,299,3.0,6.0,69,0.00,,,0.00,weatherlink.com 1.10,2013-03-04 00:58:00,
2013-03-03 20:14:00,49.6,39.0,30.16,NW,312,1.0,5.0,68,0.00,,,0.00,weatherlink.com 1.10,2013-03-04 01:14:00,
2013-03-03 20:29:00,49.6,40.0,30.16,WNW,300,0.0,5.0,69,0.00,,,0.00,weatherlink.com 1.10,2013-03-04 01:29:00,
2013-03-03 20:44:00,49.7,39.0,30.18,WNW,297,1.0,6.0,67,0.00,,,0.00,weatherlink.com 1.10,2013-03-04 01:44:00,
2013-03-03 20:59:00,49.9,39.0,30.18,NW,307,2.0,7.0,66,0.00,,,0.00,weatherlink.com 1.10,2013-03-04 01:59:00,
2013-03-03 21:14:00,50.1,40.0,30.19,ESE,107,1.0,5.0,68,0.00,,,0.00,weatherlink.com 1.10,2013-03-04 02:14:00,
2013-03-03 21:29:00,50.3,40.0,30.19,NW,321,3.0,6.0,68,0.00,,,0.00,weatherlink.com 1.10,2013-03-04 02:29:00,
2013-03-03 21:44:00,50.6,40.0,30.20,WNW,298,0.0,6.0,67,0.00,,,0.00,weatherlink.com 1.10,2013-03-04 02:44:00,
2013-03-03 21:59:00,50.6,40.0,30.20,NW,309,0.0,5.0,68,0.00,,,0.00,weatherlink.com 1.10,2013-03-04 02:59:00,
2013-03-03 22:14:00,50.9,41.0,30.20,NW,305,0.0,5.0,69,0.00,,,0.00,weatherlink.com 1.10,2013-03-04 03:14:00,
2013-03-03 22:29:00,51.1,41.0,30.20,NW,309,1.0,5.0,69,0.00,,,0.00,weatherlink.com 1.10,2013-03-04 03:29:00,
2013-03-03 22:44:00,51.1,41.0,30.21,WNW,297,1.0,5.0,69,0.00,,,0.00,weatherlink.com 1.10,2013-03-04 03:44:00,
2013-03-03 22:59:00,51.2,41.0,30.20,West,278,0.0,7.0,68,0.00,,,0.00,weatherlink.com 1.10,2013-03-04 03:59:00,
2013-03-03 23:14:00,51.1,40.0,30.20,WNW,292,1.0,5.0,67,0.00,,,0.00,weatherlink.com 1.10,2013-03-04 04:14:00,
2013-03-03 23:29:00,51.0,40.0,30.21,WNW,283,0.0,3.0,66,0.00,,,0.00,weatherlink.com 1.10,2013-03-04 04:29:00,
2013-03-03 23:44:00,51.1,41.0,30.21,NW,304,1.0,3.0,69,0.00,,,0.00,weatherlink.com 1.10,2013-03-04 04:44:00,
2013-03-03 23:59:00,51.1,40.0,30.21,WNW,300,0.0,5.0,66,0.00,,,0.00,weatherlink.com 1.10,2013-03-04 04:59:00,